Rifle, CO

11:15 AM MDT on July 25, 2017 (GMT -0600)
Garfield County Regional

Weather History for KRIL - June, 2014

Change the Weather History Date:

Monday, June 23, 2014

  Actual Average Record
Temperature  
Mean Temperature 68 °F 69 °F  
Max Temperature 87 °F 88 °F 100 °F (1954)
Min Temperature 49 °F 50 °F 35 °F (1916)
Degree Days  
Heating Degree Days 0 1  
Month to date heating degree days 40 57  
Since 1 June heating degree days 40 57  
Since 1 July heating degree days 6796 6623  
Cooling Degree Days 3 4  
Month to date cooling degree days 40 59  
Year to date cooling degree days 54 66  
Since 1 June cooling degree days 40 59  
Growing Degree Days 18 (Base 50)    
Moisture  
Dew Point 34 °F    
Average Humidity 34    
Maximum Humidity 56    
Minimum Humidity 11    
Precipitation  
Precipitation 0.00 in 0.04 in 0.42 in (1918)
Month to date precipitation 0.11 0.89  
Year to date precipitation 4.60 6.31  
Sea Level Pressure  
Sea Level Pressure 29.91 in    
Wind  
Wind Speed 7 mph (ESE)    
Max Wind Speed 23 mph    
Max Gust Speed 30 mph    
Visibility 10 miles    
Events Thunderstorm    
T = Trace of Precipitation, MM = Missing Value Source: NWS Daily Summary

Daily Weather History Graph

Daily Weather History Graph

Search for Another Location

Airport or City:

Trip Planner

Search our weather history database for the weather conditions in past years. The results will help you decide how hot, cold, wet, or windy it might be!

Date:

Astronomy

Jun. 23, 2014 Rise Set
Actual Time 5:44 AM MDT 8:42 PM MDT
Civil Twilight 5:11 AM MDT 9:14 PM MDT
Nautical Twilight 4:30 AM MDT 9:55 PM MDT
Astronomical Twilight 3:42 AM MDT 10:43 PM MDT
Moon 3:11 AM MDT (6/23) 5:26 PM MDT (6/23)
Length of Visible Light 16h 02m
Length of Day
14h 57m
Waning Crescent, 12% of the Moon is Illuminated
Jun 23
Waning Crescent
Jun 27
New
Jul 5
First Quarter
Jul 12
Full
Jul 18
Last Quarter

Hourly Weather History & Observations

Time (MDT) Temp. Dew Point Humidity Pressure Visibility Wind Dir Wind Speed Gust Speed Precip Events Conditions
12:53 AM 60.1 °F 36.0 °F 41% 29.83 in 10.0 mi East 8.1 mph - N/A   Clear
1:53 AM 57.9 °F 33.1 °F 39% 29.83 in 10.0 mi Calm Calm - N/A   Clear
2:53 AM 54.0 °F 33.1 °F 45% 29.85 in 10.0 mi South 3.5 mph - N/A   Clear
3:53 AM 53.1 °F 33.1 °F 47% 29.86 in 10.0 mi SE 3.5 mph - N/A   Clear
4:53 AM 51.1 °F 34.0 °F 52% 29.87 in 10.0 mi East 8.1 mph - N/A   Clear
5:53 AM 48.9 °F 34.0 °F 56% 29.91 in 10.0 mi Calm Calm - N/A   Clear
6:53 AM 52.0 °F 34.0 °F 50% 29.92 in 10.0 mi Calm Calm - N/A   Clear
7:53 AM 57.9 °F 37.9 °F 47% 29.91 in 10.0 mi Calm Calm - N/A   Clear
8:53 AM 62.1 °F 37.0 °F 39% 29.93 in 10.0 mi East 4.6 mph - N/A   Clear
9:53 AM 68.0 °F 37.0 °F 32% 29.91 in 10.0 mi Variable 3.5 mph - N/A   Clear
10:53 AM 75.0 °F 37.0 °F 25% 29.91 in 10.0 mi North 4.6 mph - N/A   Clear
11:53 AM 78.1 °F 36.0 °F 22% 29.88 in 10.0 mi Variable 4.6 mph - N/A   Clear
12:53 PM 84.9 °F 30.0 °F 14% 29.84 in 10.0 mi SSE 16.1 mph - N/A   Clear
1:49 PM 84.2 °F 26.6 °F 12% 30.04 in 10.0 mi SSE 13.8 mph - N/A Thunderstorm Clear
1:53 PM 87.1 °F 26.1 °F 11% 29.83 in 10.0 mi SSE 12.7 mph - N/A Thunderstorm Clear
2:22 PM 82.9 °F 28.9 °F 14% 30.04 in 10.0 mi SSE 20.7 mph 28.8 mph N/A   Clear
4:53 PM 81.0 °F 33.1 °F 18% 29.88 in 10.0 mi NNE 8.1 mph - N/A   Partly Cloudy
5:53 PM 79.0 °F 33.1 °F 19% 29.89 in 10.0 mi East 11.5 mph - N/A   Clear
6:53 PM 81.0 °F 35.1 °F 19% 29.86 in 10.0 mi SE 12.7 mph - N/A   Clear
7:53 PM 75.9 °F 37.9 °F 25% 29.86 in 10.0 mi East 9.2 mph - N/A   Clear
8:40 PM 73.9 °F 34.0 °F 23% 30.10 in 10.0 mi NNW 17.3 mph 25.3 mph N/A   Clear
8:53 PM 73.0 °F 35.1 °F 25% 29.92 in 10.0 mi NNW 11.5 mph 23.0 mph N/A   Clear
9:53 PM 69.1 °F 37.0 °F 31% 29.95 in 10.0 mi ESE 11.5 mph 16.1 mph N/A   Clear
10:53 PM 66.9 °F 37.0 °F 33% 29.94 in 10.0 mi SSW 5.8 mph - N/A   Clear
11:53 PM 62.1 °F 37.9 °F 41% 29.94 in 10.0 mi ESE 8.1 mph - N/A   Clear